Tracking 29487 objects as of 11-Sep-2024
HD Live streaming from Space Station
objects crossing your sky now

COSMOS 1691 DEB

Track COSMOS 1691 DEB now!
10-day predictions


NORAD ID: 17168
Int'l Code: 1985-094S
Perigee: 1,224.6 km
Apogee: 1,237.0 km
Inclination: 82.6 °
Period: 109.9 minutes
Semi major axis: 7601 km
RCS: 0.0357 m2 (small)
Launch date: October 9, 1985
Source: Commonwealth of Independent States (former USSR) (CIS)
Launch site: PLESETSK MISSILE AND SPACE COMPLEX (PKMTR)

Note: This is SATELLITE DEBRIS
Your satellite tracking list
Your tracking list is empty




NASA's NSSDC Master Catalog

Two Line Element Set (TLE):
1 17168U 85094S   24254.79275973  .00006439  00000-0  18530-1 0  9995
2 17168  82.5527 255.8114 0008133 249.1999 165.1410 13.09873039818893
Source of the keplerian elements: AFSPC